THY4HM LTBS-LTFM

Flight info

Callsign THY4HM
Flight time 0h 55m
Altitude 35000
Route RIVBU DCT BAGLU DCT ATGIT UT58 KFK UM855 SISPI
Aircraft A321/M-SDE3FGHIRWY/LB1

Departure

Time 2026-04-25 19:02
Airport Dalaman International Airport (LTBS)

Arrival

Time 2026-04-25 19:58
Airport İstanbul Airport (LTFM)
Time Latitude Longitude Altitude Speed Heading
2026-04-25 18:43 36.72275 28.79063 27 ft 0 kts 285°
2026-04-25 18:52 36.72274 28.79069 27 ft 3 kts 287°
2026-04-25 18:53 36.72263 28.79099 27 ft 4 kts 308°
2026-04-25 18:53 36.72244 28.79121 27 ft 4 kts 335°
2026-04-25 18:53 36.72219 28.79128 27 ft 4 kts
2026-04-25 18:53 36.72211 28.79126 27 ft 0 kts 15°
2026-04-25 18:57 36.72223 28.79130 27 ft 6 kts 15°
2026-04-25 18:57 36.72260 28.79143 27 ft 10 kts 15°
2026-04-25 18:58 36.72358 28.79178 27 ft 10 kts 16°
2026-04-25 18:58 36.72515 28.79232 27 ft 14 kts 15°
2026-04-25 18:58 36.72599 28.79260 27 ft 11 kts 15°
2026-04-25 18:59 36.72684 28.79365 27 ft 11 kts 100°
2026-04-25 18:59 36.72645 28.79544 27 ft 2 kts 105°
2026-04-25 19:00 36.72643 28.79554 27 ft 0 kts 105°
2026-04-25 19:01 36.72630 28.79601 28 ft 9 kts 115°
2026-04-25 19:01 36.72582 28.79656 29 ft 10 kts 153°
2026-04-25 19:01 36.72510 28.79655 29 ft 12 kts 195°
2026-04-25 19:01 36.72342 28.79599 29 ft 58 kts 195°
2026-04-25 19:02 36.70623 28.79007 131 ft 178 kts 196°
2026-04-25 19:02 36.69455 28.78600 967 ft 173 kts 195°
2026-04-25 19:02 36.68297 28.78208 1682 ft 176 kts 195°
2026-04-25 19:03 36.66122 28.77475 2184 ft 214 kts 195°
2026-04-25 19:03 36.64020 28.76733 2466 ft 255 kts 195°
2026-04-25 19:03 36.62270 28.76127 3149 ft 265 kts 193°
2026-04-25 19:04 36.58678 28.74967 4935 ft 268 kts 185°
2026-04-25 19:04 36.56852 28.75242 5754 ft 267 kts 156°
2026-04-25 19:05 36.54459 28.78594 7384 ft 272 kts 107°
2026-04-25 19:05 36.53457 28.83176 8998 ft 278 kts 107°
2026-04-25 19:05 36.52942 28.85512 9771 ft 282 kts 107°
2026-04-25 19:06 36.52414 28.87897 10397 ft 294 kts 107°
2026-04-25 19:06 36.52034 28.93146 11430 ft 322 kts 75°
2026-04-25 19:06 36.53090 28.95597 12023 ft 337 kts 51°
2026-04-25 19:07 36.57468 28.98480 12419 ft 382 kts 17°
2026-04-25 19:07 36.60054 28.99357 13015 ft 388 kts 14°
2026-04-25 19:08 36.65364 29.00948 14369 ft 396 kts 14°
2026-04-25 19:08 36.68049 29.01774 15023 ft 400 kts 14°
2026-04-25 19:09 36.76204 29.04532 16974 ft 410 kts 15°
2026-04-25 19:09 36.78025 29.05176 17389 ft 412 kts 15°
2026-04-25 19:09 36.84541 29.07474 18802 ft 420 kts 15°
2026-04-25 19:10 36.87369 29.08455 19380 ft 424 kts 15°
2026-04-25 19:10 36.90224 29.09441 19972 ft 426 kts 15°
2026-04-25 19:10 36.93092 29.10427 20544 ft 429 kts 15°
2026-04-25 19:10 36.95968 29.11468 21061 ft 432 kts 19°
2026-04-25 19:11 36.98756 29.12898 21559 ft 435 kts 23°
2026-04-25 19:11 37.01542 29.14403 22063 ft 438 kts 23°
2026-04-25 19:11 37.04346 29.15919 22551 ft 440 kts 23°
2026-04-25 19:11 37.07165 29.17440 23012 ft 443 kts 23°
2026-04-25 19:12 37.10005 29.18967 23483 ft 445 kts 23°
2026-04-25 19:12 37.12820 29.20480 23926 ft 448 kts 23°
2026-04-25 19:12 37.15687 29.22023 24374 ft 450 kts 23°
2026-04-25 19:12 37.18574 29.23580 24809 ft 452 kts 23°
2026-04-25 19:13 37.21471 29.25151 25227 ft 455 kts 24°
2026-04-25 19:13 37.24383 29.26734 25619 ft 458 kts 24°
2026-04-25 19:13 37.27310 29.28324 26032 ft 460 kts 24°
2026-04-25 19:13 37.30273 29.29857 26407 ft 462 kts 19°
2026-04-25 19:14 37.33383 29.30906 26784 ft 464 kts 10°
2026-04-25 19:14 37.35553 29.31271 27019 ft 466 kts
2026-04-25 19:14 37.39859 29.31384 27510 ft 469 kts
2026-04-25 19:14 37.43131 29.31425 27891 ft 471 kts
2026-04-25 19:15 37.46415 29.31477 28252 ft 473 kts
2026-04-25 19:15 37.49714 29.31537 28628 ft 474 kts
2026-04-25 19:15 37.53005 29.31598 29103 ft 473 kts
2026-04-25 19:15 37.56289 29.31657 29590 ft 471 kts
2026-04-25 19:16 37.59565 29.31713 30052 ft 470 kts
2026-04-25 19:16 37.62829 29.31771 30514 ft 469 kts
2026-04-25 19:16 37.66089 29.31831 30971 ft 468 kts
2026-04-25 19:16 37.69338 29.31888 31390 ft 467 kts
2026-04-25 19:17 37.72589 29.31941 31802 ft 467 kts
2026-04-25 19:17 37.75833 29.31992 32222 ft 466 kts
2026-04-25 19:17 37.79075 29.32047 32602 ft 466 kts
2026-04-25 19:17 37.82312 29.32105 32972 ft 465 kts
2026-04-25 19:18 37.85551 29.32162 33342 ft 466 kts
2026-04-25 19:18 37.88790 29.32217 33712 ft 465 kts
2026-04-25 19:18 37.92022 29.32268 34081 ft 464 kts
2026-04-25 19:18 37.95212 29.32317 34387 ft 465 kts
2026-04-25 19:19 37.98440 29.32549 34634 ft 465 kts
2026-04-25 19:19 38.01573 29.33554 34884 ft 465 kts 21°
2026-04-25 19:19 38.04482 29.35335 35042 ft 464 kts 32°
2026-04-25 19:20 38.09574 29.40310 35072 ft 461 kts 31°
2026-04-25 19:20 38.12517 29.41857 35076 ft 460 kts 11°
2026-04-25 19:20 38.15689 29.42427 35072 ft 461 kts
2026-04-25 19:21 38.22027 29.43718 35075 ft 461 kts 11°
2026-04-25 19:21 38.31460 29.46197 35063 ft 462 kts 12°
2026-04-25 19:22 38.37754 29.47836 35066 ft 462 kts 11°
2026-04-25 19:23 38.47219 29.50205 35074 ft 462 kts 11°
2026-04-25 19:23 38.56683 29.52573 35074 ft 462 kts 11°
2026-04-25 19:24 38.62983 29.54151 35069 ft 461 kts 11°
2026-04-25 19:25 38.75546 29.57297 35077 ft 462 kts 11°
2026-04-25 19:25 38.81847 29.58891 35078 ft 461 kts 11°
2026-04-25 19:26 38.88140 29.60484 35081 ft 461 kts 11°
2026-04-25 19:26 38.94421 29.62073 35069 ft 460 kts 11°
2026-04-25 19:27 38.99635 29.63395 35071 ft 459 kts 11°
2026-04-25 19:27 39.06955 29.65251 35064 ft 458 kts 11°
2026-04-25 19:28 39.13201 29.66840 35065 ft 457 kts 11°
2026-04-25 19:28 39.19436 29.68430 35070 ft 456 kts 11°
2026-04-25 19:29 39.25665 29.70012 35064 ft 456 kts 11°
2026-04-25 19:29 39.31893 29.71598 35068 ft 456 kts 11°
2026-04-25 19:30 39.38107 29.73188 35076 ft 455 kts 11°
2026-04-25 19:30 39.44265 29.74783 35067 ft 454 kts 11°
2026-04-25 19:31 39.50519 29.76396 34618 ft 460 kts 11°
2026-04-25 19:31 39.53636 29.77196 34367 ft 454 kts 11°
2026-04-25 19:31 39.56723 29.77990 34117 ft 451 kts 11°
2026-04-25 19:32 39.59789 29.78781 33867 ft 448 kts 11°
2026-04-25 19:32 39.62838 29.79572 33617 ft 446 kts 11°
2026-04-25 19:32 39.65878 29.80360 33192 ft 446 kts 11°
2026-04-25 19:32 39.66907 29.80627 32855 ft 449 kts 11°
2026-04-25 19:33 39.71972 29.81935 32232 ft 438 kts 11°
2026-04-25 19:33 39.74936 29.82701 31862 ft 432 kts 11°
2026-04-25 19:33 39.77885 29.83463 31126 ft 433 kts 11°
2026-04-25 19:33 39.80874 29.84238 29874 ft 444 kts 12°
2026-04-25 19:34 39.83914 29.85032 29259 ft 441 kts 12°
2026-04-25 19:34 39.86863 29.85800 28888 ft 426 kts 12°
2026-04-25 19:34 39.89727 29.86544 28352 ft 414 kts 11°
2026-04-25 19:34 39.92551 29.86981 27864 ft 407 kts
2026-04-25 19:35 39.95350 29.86987 27540 ft 412 kts
2026-04-25 19:35 39.98231 29.86978 27161 ft 415 kts
2026-04-25 19:35 40.01118 29.86978 26785 ft 414 kts
2026-04-25 19:35 40.03995 29.86980 26407 ft 412 kts
2026-04-25 19:36 40.06854 29.86981 26030 ft 410 kts
2026-04-25 19:36 40.09699 29.86979 25658 ft 408 kts
2026-04-25 19:36 40.12533 29.86974 25290 ft 406 kts
2026-04-25 19:36 40.15350 29.86969 24925 ft 404 kts
2026-04-25 19:37 40.18159 29.86963 24559 ft 402 kts
2026-04-25 19:37 40.20948 29.86955 24196 ft 400 kts
2026-04-25 19:37 40.23726 29.86946 23834 ft 398 kts
2026-04-25 19:37 40.26490 29.86942 23472 ft 396 kts 360°
2026-04-25 19:38 40.29235 29.86599 22625 ft 400 kts 345°
2026-04-25 19:38 40.31753 29.85221 21751 ft 388 kts 328°
2026-04-25 19:38 40.33805 29.83005 20752 ft 379 kts 313°
2026-04-25 19:38 40.35535 29.80533 20312 ft 356 kts 313°
2026-04-25 19:39 40.37163 29.78211 19902 ft 339 kts 313°
2026-04-25 19:39 40.38784 29.75911 19485 ft 346 kts 313°
2026-04-25 19:39 40.40420 29.73598 19034 ft 344 kts 313°
2026-04-25 19:39 40.42047 29.71306 18585 ft 342 kts 313°
2026-04-25 19:40 40.43655 29.69036 18151 ft 339 kts 313°
2026-04-25 19:40 40.45231 29.66797 17710 ft 337 kts 313°
2026-04-25 19:40 40.46818 29.64546 17267 ft 335 kts 313°
2026-04-25 19:40 40.48396 29.62306 16826 ft 333 kts 313°
2026-04-25 19:41 40.49965 29.60081 16386 ft 331 kts 313°
2026-04-25 19:41 40.51523 29.57863 15945 ft 329 kts 312°
2026-04-25 19:41 40.53070 29.55659 15509 ft 327 kts 312°
2026-04-25 19:41 40.53591 29.54918 15361 ft 327 kts 312°
2026-04-25 19:42 40.56143 29.51287 14633 ft 324 kts 312°
2026-04-25 19:42 40.57669 29.49111 14200 ft 322 kts 312°
2026-04-25 19:42 40.59181 29.46951 13760 ft 320 kts 312°
2026-04-25 19:42 40.60689 29.44793 13356 ft 320 kts 312°
2026-04-25 19:43 40.62192 29.42641 12972 ft 318 kts 312°
2026-04-25 19:43 40.63685 29.40505 12570 ft 316 kts 312°
2026-04-25 19:43 40.65170 29.38381 12169 ft 314 kts 312°
2026-04-25 19:43 40.66645 29.36273 11767 ft 312 kts 311°
2026-04-25 19:44 40.68113 29.34174 11367 ft 311 kts 311°
2026-04-25 19:44 40.69571 29.32085 10961 ft 309 kts 311°
2026-04-25 19:44 40.71000 29.30032 10547 ft 297 kts 311°
2026-04-25 19:44 40.72379 29.28051 10182 ft 292 kts 311°
2026-04-25 19:45 40.73756 29.26075 9810 ft 292 kts 311°
2026-04-25 19:45 40.75123 29.24110 9432 ft 290 kts 311°
2026-04-25 19:45 40.76485 29.22149 9056 ft 289 kts 311°
2026-04-25 19:45 40.77841 29.20197 8682 ft 288 kts 311°
2026-04-25 19:46 40.79190 29.18253 8301 ft 287 kts 311°
2026-04-25 19:46 40.80535 29.16316 7930 ft 286 kts 312°
2026-04-25 19:46 40.81873 29.14385 7552 ft 284 kts 312°
2026-04-25 19:46 40.83205 29.12462 7177 ft 283 kts 312°
2026-04-25 19:47 40.84532 29.10543 6801 ft 282 kts 312°
2026-04-25 19:47 40.85820 29.08680 6416 ft 271 kts 312°
2026-04-25 19:47 40.87054 29.06893 6040 ft 256 kts 312°
2026-04-25 19:47 40.88226 29.05197 5782 ft 246 kts 312°
2026-04-25 19:48 40.89370 29.03540 5530 ft 242 kts 313°
2026-04-25 19:48 40.90457 29.01863 5280 ft 239 kts 303°
2026-04-25 19:48 40.91169 28.99892 5068 ft 238 kts 286°
2026-04-25 19:48 40.91442 28.97733 5003 ft 239 kts 276°
2026-04-25 19:49 40.91624 28.95542 5006 ft 240 kts 276°
2026-04-25 19:49 40.91688 28.94800 5006 ft 240 kts 276°
2026-04-25 19:49 40.92007 28.91148 5006 ft 241 kts 277°
2026-04-25 19:49 40.92201 28.88950 5006 ft 241 kts 277°
2026-04-25 19:50 40.92520 28.85301 5007 ft 240 kts 276°
2026-04-25 19:50 40.92709 28.83112 5004 ft 237 kts 276°
2026-04-25 19:50 40.93286 28.80306 4516 ft 243 kts 301°
2026-04-25 19:51 40.93943 28.79145 4402 ft 234 kts 314°
2026-04-25 19:51 40.95216 28.77856 4129 ft 229 kts 330°
2026-04-25 19:51 40.96588 28.76800 4001 ft 228 kts 334°
2026-04-25 19:51 40.98095 28.76213 3996 ft 224 kts 357°
2026-04-25 19:52 40.99594 28.76175 4027 ft 210 kts
2026-04-25 19:52 41.01047 28.76151 4012 ft 208 kts
2026-04-25 19:52 41.02497 28.76124 4000 ft 208 kts
2026-04-25 19:52 41.03944 28.76097 4010 ft 208 kts
2026-04-25 19:53 41.05391 28.76069 3999 ft 208 kts
2026-04-25 19:53 41.06840 28.76041 4003 ft 208 kts
2026-04-25 19:53 41.08270 28.76013 4024 ft 198 kts
2026-04-25 19:53 41.09565 28.75987 4009 ft 175 kts 360°
2026-04-25 19:54 41.10728 28.75963 3998 ft 163 kts
2026-04-25 19:54 41.11867 28.75941 3774 ft 167 kts
2026-04-25 19:54 41.13033 28.75920 3396 ft 168 kts
2026-04-25 19:54 41.13809 28.75905 3133 ft 169 kts
2026-04-25 19:55 41.15381 28.75875 2561 ft 168 kts
2026-04-25 19:55 41.16512 28.75853 2296 ft 159 kts
2026-04-25 19:55 41.17611 28.75833 2048 ft 154 kts 360°
2026-04-25 19:55 41.18654 28.75813 1829 ft 151 kts 360°
2026-04-25 19:56 41.19700 28.75793 1622 ft 150 kts 359°
2026-04-25 19:56 41.20740 28.75775 1424 ft 149 kts 359°
2026-04-25 19:56 41.21777 28.75753 1230 ft 149 kts 359°
2026-04-25 19:56 41.22811 28.75734 1031 ft 148 kts 359°
2026-04-25 19:57 41.23841 28.75715 833 ft 148 kts 359°
2026-04-25 19:57 41.24865 28.75697 639 ft 147 kts 359°
2026-04-25 19:57 41.25883 28.75675 456 ft 146 kts 359°
2026-04-25 19:57 41.26888 28.75654 334 ft 136 kts 358°
2026-04-25 19:58 41.27678 28.75638 334 ft 81 kts 359°
2026-04-25 19:58 41.27989 28.75602 333 ft 25 kts 337°
2026-04-25 19:58 41.28122 28.75509 333 ft 11 kts 328°
2026-04-25 19:58 41.28163 28.75455 334 ft 9 kts 295°
2026-04-25 19:59 41.28147 28.75369 334 ft 11 kts 226°
2026-04-25 19:59 41.28068 28.75348 332 ft 13 kts 179°
2026-04-25 19:59 41.27990 28.75350 334 ft 11 kts 179°
2026-04-25 19:59 41.27905 28.75352 334 ft 13 kts 179°
2026-04-25 20:00 41.27817 28.75354 333 ft 13 kts 179°
2026-04-25 20:00 41.27756 28.75355 334 ft 14 kts 179°
2026-04-25 20:00 41.27621 28.75358 331 ft 15 kts 179°
2026-04-25 20:00 41.27517 28.75361 332 ft 15 kts 178°
2026-04-25 20:01 41.27311 28.75366 334 ft 16 kts 179°
2026-04-25 20:01 41.27195 28.75368 333 ft 17 kts 179°
2026-04-25 20:01 41.27071 28.75371 333 ft 17 kts 179°
2026-04-25 20:02 41.26961 28.75374 334 ft 11 kts 179°
2026-04-25 20:02 41.26901 28.75339 332 ft 11 kts 242°
2026-04-25 20:02 41.26894 28.75230 333 ft 13 kts 269°
2026-04-25 20:02 41.26893 28.75100 334 ft 15 kts 269°
2026-04-25 20:03 41.26891 28.74976 334 ft 8 kts 269°
2026-04-25 20:03 41.26864 28.74914 334 ft 7 kts 201°
2026-04-25 20:03 41.26826 28.74911 334 ft 6 kts 179°
2026-04-25 20:03 41.26803 28.74912 331 ft 4 kts 179°
2026-04-25 20:04 41.26789 28.74912 331 ft 1 kts 179°
2026-04-25 20:04 41.26787 28.74912 334 ft 0 kts 179°